Starlink 35753

operational
NORAD ID: 66233 Int'l Des: 2025-244 Owner: SPXS Country: US Constellation: starlink
NOTLE

Starlink 35753について

説明を読み込み中...

リアルタイム位置

3D地球を読み込み中...

次回通過

高度履歴

Altitude vs Time

uPlot chart will show altitude changes over time

軌道要素

1 66233C 25244AC 25301.73798611 .03109400 00000+0 43687-2 0 3013
2 66233 53.1569 134.0913 0010921 272.0500 328.0546 16.01947927 16
Epoch: Oct 28, 2025 • Age: 84 hours

現在のステータス

高度 196.1 km
速度 7.79 km/s
衛星直下点 2.04°N, 93.75°W
打ち上げ日 Oct 28, 2025
運用期間 3 days
タイプ internet

技術仕様

分類 Payload
質量 575.00 kg
乾燥質量 530.00 kg
総質量 575.00 kg
長さ 0.30 m
直径 4.10 m
スパン 29.00 m
形状 Box + pan
製造者 SPXS
バスタイプ Starlink V2MO
フェーズステータス In Orbit
所有者/国 SPXS/US

大規模コンステレーション

Loading constellations...